Regional Weather Roundup
Issued by NWS Cleveland, OH

Home | Current Version | Previous Version | Graphics & Text | Print | Product List | Glossary On
Versions: 1 2 3 4 5 6 7 8 9 10 11 12 13 14 15 16 17 18 19 20 21 22 23 24 25 26 27 28 29 30 31 32 33 34 35 36 37 38 39 40 41 42 43 44 45 46 47 48 49 50
000
ASUS41 KCLE 300502
RWRCLE
OHIO REGIONAL WEATHER ROUNDUP
NATIONAL WEATHER SERVICE CLEVELAND, OH
100 AM EDT FRI SEP 30 2016

NOTE: "FAIR" INDICATES FEW OR NO CLOUDS BELOW 12,000 FEET WITH NO
SIGNIFICANT WEATHER AND/OR OBSTRUCTIONS TO VISIBILITY.

OHZ001>008-015>018-024>027-034-035-043-044-300600-
   NORTHWEST OHIO

CITY           SKY/WX    TMP DP  RH WIND       PRES   REMARKS
DEFIANCE       CLOUDY    62  58  86 NE8       30.10F
FINDLAY        CLOUDY    61  57  87 NE9       30.08S
TOLEDO EXPRESS CLOUDY    62  62 100 NE6       30.11F
TOLEDO EXEC    LGT RAIN  64  62  93 NE6       30.11F
LIMA           CLOUDY    58  58 100 NE7       30.07F FOG
$$

OHZ009>014-019>023-028>033-038-089-300600-
   NORTHEAST OHIO

CITY           SKY/WX    TMP DP  RH WIND       PRES   REMARKS
CLE-HOPKINS    LGT RAIN  62  57  83 E12       30.16F
CLE-LAKEFRONT  LGT RAIN  61  58  90 E12       30.14F
CUY CO. ARPT   NOT AVBL
LORAIN-ELYRIA  NOT AVBL
ASHTABULA      LGT RAIN  58  58 100 E6        30.21F
AKRON-CANTON   LGT RAIN  59  56  89 E14       30.13F
WOOSTER        CLOUDY    59  57  93 E18G24    30.11S
MANSFIELD      CLOUDY    59  58  96 NE12      30.09F
YOUNGSTOWN     RAIN      58  56  93 E12       30.18F FOG
$$

OHZ042-051>053-060>062-070>072-077>081-300600-
  SOUTHWEST OHIO

CITY           SKY/WX    TMP DP  RH WIND       PRES   REMARKS
CINC-COVINGTON LGT RAIN  58  57  97 NE9       30.03F
CINC-LUNKEN    CLOUDY    57  57 100 NE8       30.05F
HAMILTON       CLOUDY    58  55  90 NE5       30.07F
DAYTON         RAIN      58  57  97 CALM      30.10S FOG
WRIGHT-PAT AFB NOT AVBL
DAYTON GENERAL RAIN      58  55  90 E6        30.09R
WILMINGTON     LGT RAIN  57  57 100 CALM      30.08F
$$

OHZ036-037-039>041-045>050-054>059-063>069-073>076-082>088-300600-
  CENTRAL AND SOUTHEAST OHIO

CITY           SKY/WX    TMP DP  RH WIND       PRES   REMARKS
COLUMBUS       LGT RAIN  61  60  97 NE5       30.06R
OSU AIRPORT    LGT RAIN  61  60  97 CALM      30.07R
BOLTON FIELD   NOT AVBL
RICKENBACK AFB CLOUDY    59  59 100 CALM      30.06S
NEWARK         LGT RAIN  61  59  93 NE3       30.06F
MARION         CLOUDY    59  57  93 E5        30.09R
LANCASTER      CLOUDY    61  60  97 CALM      30.06F
ZANESVILLE     RAIN      62  60  93 NE8       30.06S FOG
NEW PHILLY     CLOUDY    61  59  93 VRB5      30.09F
$$




USA.gov is the U.S. government's official web portal to all federal, state and local government web resources and services.